[[{"header":{"parameterUnit":"m.s-1","parameterCategory":1,"la1":30.2992,"la2":30.254,"lo1":-89.0895,"lo2":-89.0443,"dy":0.0025,"dx":0.0025,"nx":19,"ny":19,"refTime":"2026-03-20T03:00:00:Z","depth":0,"parameterNumber":2,"parameterNumberName":"U-component_of_WINDS"},"data":[0,0,0,3.8183,3.8186,3.8326,3.8327,3.8515,3.8517,0,0,0,0,0,0,0,0,0,0,0,3.815,3.8152,3.8183,3.8186,3.8326,3.8327,3.8515,3.8517,0,0,0,0,0,0,0,0,0,0,0,3.8149,3.8151,3.8153,3.8187,3.8326,3.8327,3.8514,3.8405,0,0,0,0,0,0,0,0,0,0,3.8267,3.8246,3.8151,3.8153,3.8188,3.8326,3.8327,3.8399,3.8411,3.8456,0,3.8501,0,3.8512,3.853,3.8531,0,0,0,3.8179,3.8236,3.8266,3.8153,3.8189,3.8326,3.8261,3.8406,3.842,3.8473,3.8504,3.851,3.8515,3.8531,3.8532,3.8817,3.8818,0,0,3.8172,3.818,3.8256,3.8275,3.8257,3.8257,3.8265,3.8414,3.8447,3.8504,3.8514,3.8518,3.8533,3.8534,3.8815,3.8817,0,0,0,3.8154,3.8174,3.82,3.8268,3.8292,3.8261,3.8271,3.8441,3.8449,3.8516,3.852,3.8534,3.8536,3.8813,3.8816,3.8903,0,0,0,3.8149,3.8164,3.8197,3.8204,3.829,3.8369,3.8295,3.8438,3.8455,3.8519,3.8534,3.8538,3.8812,3.8815,3.8897,3.8942,0,0,0,3.8138,3.8163,3.8186,3.8204,3.8264,3.8366,3.8383,3.8442,3.8458,3.8531,3.8539,3.881,3.8814,3.8891,3.8933,3.9016,0,0,0,3.8128,3.8264,3.8188,3.834,3.8263,3.8421,3.8382,3.8498,3.8572,3.8535,3.8812,3.8816,3.8889,3.8927,3.901,3.9085,3.9118,0,0,3.8303,3.8285,3.8374,3.831,3.8483,3.8399,3.8583,3.8643,3.8643,3.8758,3.8765,3.8899,3.8932,3.9014,3.9306,3.9332,0,0,0,3.8432,3.8495,3.8539,3.861,3.8659,3.8703,3.8734,3.8755,3.8852,3.8705,3.8953,3.8972,3.902,3.9055,3.9078,3.9116,3.8833,3.8833,3.8833,3.869,3.8682,3.8827,3.8834,3.8903,3.8931,3.8984,3.9017,3.8991,3.9049,3.9082,3.926,3.9302,3.9319,3.9359,3.9124,3.9125,3.9125,3.9125,3.8943,3.903,3.8989,3.9114,3.9103,3.9208,3.9239,3.9215,3.9309,3.9236,3.9277,3.9195,3.9348,3.9382,3.9132,3.9131,3.913,3.9129,3.9129,3.9109,3.9148,3.9172,3.9269,3.9345,3.9347,3.9438,3.9426,3.9415,3.9456,3.9487,3.9485,3.9479,3.9472,3.9473,3.9473,3.9474,3.9474,3.9475,3.927,3.9294,3.9372,3.9433,3.9474,3.9526,3.9554,3.9593,3.9632,3.9615,3.9616,3.9579,3.9366,3.931,3.9484,3.9483,3.9481,3.948,3.948,3.9524,3.9464,3.9585,3.9626,3.9693,3.9766,3.9749,3.9829,3.9859,3.9903,3.9858,3.9704,3.9683,3.9666,3.9619,3.9862,3.9862,3.9862,3.9862,3.9661,3.965,3.9768,3.9833,3.9896,3.9891,4.0024,4.0045,4.0057,4.0074,4.0038,3.9976,3.9959,3.9949,3.9925,3.9881,4.0185,4.0186,4.0186,3.9814,3.9808,3.9925,3.9937,3.9987,4.003,4.0152,4.0226,4.0227,4.0199,4.0086,4.0073,3.9973,3.9942,3.9909,3.9872,3.9791,0,0]},{"header":{"parameterUnit":"m.s-1","parameterCategory":1,"la1":30.2992,"la2":30.254,"lo1":-89.0895,"lo2":-89.0443,"dy":0.0025,"dx":0.0025,"nx":19,"ny":19,"refTime":"2026-03-20T03:00:00:Z","depth":0,"parameterNumber":3,"parameterNumberName":"V-component_of_WINDS"},"data":[0,0,0,1.6717,1.6717,1.6748,1.6748,1.6794,1.6794,0,0,0,0,0,0,0,0,0,0,0,1.6714,1.6714,1.6717,1.6718,1.6748,1.6748,1.6794,1.6794,0,0,0,0,0,0,0,0,0,0,0,1.6713,1.6714,1.6715,1.6718,1.6748,1.6748,1.6794,1.6768,0,0,0,0,0,0,0,0,0,0,1.6737,1.6741,1.6714,1.6715,1.6718,1.6748,1.6748,1.6767,1.677,1.6784,0,1.6799,0,1.6798,1.6798,1.6798,0,0,0,1.6713,1.6738,1.6741,1.6715,1.6718,1.6748,1.6733,1.6768,1.6772,1.6788,1.68,1.6801,1.6798,1.6799,1.6799,1.6895,1.6896,0,0,1.6712,1.6722,1.6739,1.6743,1.674,1.6732,1.6734,1.677,1.6784,1.68,1.6802,1.6799,1.6799,1.6799,1.6895,1.6895,0,0,0,1.671,1.6721,1.6723,1.6742,1.6747,1.6733,1.6735,1.6782,1.6781,1.6802,1.68,1.6799,1.68,1.6894,1.6895,1.6936,0,0,0,1.6708,1.672,1.6722,1.6729,1.6746,1.6765,1.6746,1.6779,1.6783,1.6799,1.6799,1.68,1.6893,1.6894,1.6934,1.6954,0,0,0,1.671,1.672,1.6727,1.673,1.6743,1.6764,1.6766,1.6779,1.6781,1.6798,1.6801,1.6893,1.6894,1.6931,1.695,1.6981,0,0,0,1.6714,1.6765,1.6728,1.6783,1.6743,1.679,1.6765,1.68,1.682,1.6799,1.6893,1.6895,1.6931,1.6948,1.6979,1.7008,1.7022,0,0,1.6784,1.6774,1.6805,1.6773,1.6829,1.6784,1.6846,1.6855,1.6847,1.6879,1.6881,1.6935,1.695,1.6981,1.7097,1.7108,0,0,0,1.6831,1.6854,1.6866,1.6885,1.6892,1.6899,1.6896,1.6899,1.6925,1.6866,1.6954,1.6963,1.6981,1.6994,1.7004,1.7017,1.6902,1.6902,1.6902,1.6946,1.6932,1.6982,1.697,1.6989,1.6984,1.6997,1.6999,1.6981,1.7002,1.7012,1.7084,1.71,1.7107,1.7121,1.7027,1.7027,1.7027,1.7027,1.7046,1.7075,1.7046,1.7085,1.7069,1.7101,1.7097,1.7082,1.7109,1.7076,1.7091,1.7056,1.7119,1.7131,1.703,1.703,1.7029,1.7029,1.7029,1.7119,1.713,1.7131,1.7154,1.7174,1.716,1.7186,1.7171,1.7157,1.7171,1.7178,1.7177,1.7173,1.7176,1.7176,1.7176,1.7176,1.7177,1.7177,1.7194,1.7193,1.7217,1.7226,1.7234,1.7243,1.7237,1.7244,1.7249,1.7235,1.7235,1.7213,1.7129,1.7107,1.7181,1.718,1.7179,1.7179,1.7179,1.7299,1.7271,1.7308,1.7316,1.7323,1.7342,1.7322,1.7337,1.7342,1.7354,1.7328,1.7269,1.7257,1.725,1.7231,1.7333,1.7333,1.7333,1.7333,1.7359,1.7351,1.7383,1.7396,1.7407,1.7392,1.7431,1.7425,1.7415,1.7416,1.7399,1.7374,1.7367,1.736,1.735,1.7332,1.7457,1.7457,1.7457,1.7422,1.7413,1.745,1.7439,1.7443,1.7446,1.7482,1.7497,1.7481,1.7462,1.7416,1.7411,1.737,1.7358,1.7339,1.7324,1.7291,0,0]}]]